Wind_Speed
12 12 11 11 11 12 12 11 11 11 11 12 12 12 12 12 12 12 11 11 11 12 11 11 11 12 12 12 12 12 13 13 13 13 13 13 13 13 13 13 12 12 12 11
12 12 11 12 12 12 12 12 11 11 11 12 12 12 12 11 12 12 12 11 11 12 11 11 11 12 12 12 13 13 13 14 14 14 14 14 14 14 13 13 13 13 12 12
12 11 12 13 13 12 12 12 12 12 11 12 12 12 11 11 11 12 12 12 11 11 11 11 12 13 13 13 13 13 14 14 15 15 15 15 15 15 14 14 14 13 13 13
12 12 13 13 12 12 12 12 12 13 13 13 13 12 11 12 12 12 12 11 12 12 11 12 12 14 14 14 14 14 15 15 15 16 16 16 15 15 14 14 14 14 14 14
13 12 13 13 13 13 13 13 14 15 15 15 14 15 13 13 12 12 13 13 13 12 12 12 13 15 15 15 16 15 16 16 16 16 16 16 16 16 15 15 15 15 15 15
13 13 14 14 14 15 15 15 16 16 17 17 15 16 15 14 14 14 14 14 14 14 13 13 14 14 15 16 16 16 16 17 17 17 17 17 18 17 17 17 16 16 16 16
14 14 14 15 15 15 16 16 17 17 18 17 16 18 17 15 15 15 15 14 14 15 15 15 15 15 16 16 17 17 17 18 18 18 18 19 19 18 18 18 18 18 18 18
15 15 15 15 15 16 16 16 17 18 19 17 17 19 17 16 16 16 16 16 16 16 15 16 16 17 17 17 18 18 18 18 18 18 19 19 19 19 19 19 19 19 20 19
16 16 15 16 16 16 17 17 18 19 19 20 20 20 19 17 17 17 17 18 18 17 16 16 17 18 18 18 19 19 19 19 19 20 20 20 20 20 20 20 20 20 21 21
17 17 16 16 17 17 18 18 19 20 21 21 22 22 20 19 19 19 19 19 19 19 19 18 19 20 20 20 20 20 20 20 21 21 21 21 21 22 22 22 22 22 23 23
18 19 18 19 19 19 19 19 20 21 22 22 23 21 20 20 20 19 19 19 20 20 20 20 21 21 22 21 21 21 21 22 22 22 22 23 23 23 24 23 23 23 24 25
19 20 20 20 20 20 21 21 21 22 22 23 24 22 21 21 21 21 22 22 22 22 22 22 22 23 23 23 23 23 23 23 23 23 23 23 24 24 24 24 24 25 25 25
21 21 21 20 21 21 21 21 20 21 22 23 24 23 21 22 22 23 23 24 24 23 24 24 24 25 25 25 24 24 25 24 24 24 24 24 24 25 25 25 26 25 25 25
21 22 22 22 22 21 21 21 20 21 22 23 24 24 23 23 23 23 24 24 25 25 25 25 25 26 26 25 25 25 25 25 25 25 25 26 26 26 26 26 26 26 26 26
21 22 22 21 22 22 21 21 21 22 22 23 23 23 23 23 23 23 24 24 25 25 25 26 26 25 25 25 25 25 26 26 26 27 27 27 27 27 27 27 27 27 27 26
22 22 22 21 22 23 23 23 23 23 23 22 23 23 22 22 23 23 24 24 25 25 26 26 26 25 26 26 25 26 27 27 27 28 28 28 28 28 27 27 27 27 27 27
21 22 22 21 22 22 24 23 22 23 24 23 23 23 23 24 24 25 25 26 26 27 27 26 27 27 27 27 27 28 28 28 28 28 29 29 29 29 28 28 28 28 28 28
21 20 21 22 20 21 22 22 22 22 23 23 23 23 24 25 25 25 26 27 28 29 29 28 28 29 28 28 28 29 29 29 29 29 30 30 30 30 30 30 30 30 30 30
21 21 21 22 22 22 22 22 22 22 22 23 23 23 24 25 26 26 28 29 30 30 30 30 30 30 30 30 30 30 30 30 30 30 30 30 30 30 30 30 30 30 30 30
20 21 22 22 23 23 21 21 21 23 24 24 24 25 26 27 28 28 29 30 31 32 32 31 31 30 30 30 30 30 30 30 30 29 29 30 30 30 29 29 30 31 30 30
21 21 22 22 24 24 22 22 23 24 25 25 25 26 27 28 29 29 30 31 32 32 32 32 31 31 31 30 30 31 31 30 29 29 29 29 29 29 29 29 30 30 31 31
22 22 23 24 25 24 22 23 23 24 25 26 27 27 27 28 29 29 29 30 31 31 31 31 31 31 30 31 31 31 31 30 30 30 29 30 30 30 30 30 30 30 31 31
23 23 24 24 25 24 23 24 24 25 26 27 28 28 28 28 28 29 28 29 29 29 29 29 30 29 29 29 30 31 31 32 31 31 31 31 31 31 31 31 31 30 31 31
23 23 24 25 25 25 25 25 27 27 28 27 27 27 28 28 28 28 28 27 27 27 27 27 27 28 28 28 29 30 31 32 32 32 32 31 31 32 31 32 32 31 32 32
23 24 25 25 25 26 26 27 27 28 28 28 28 28 27 27 27 28 28 27 26 27 26 26 26 27 28 28 28 29 29 30 30 31 32 32 32 32 32 32 31 31 31 31
23 25 25 26 27 28 27 27 28 27 27 28 28 28 28 28 28 28 28 27 27 27 26 26 26 27 27 27 28 28 29 30 30 30 31 31 32 32 32 31 31 31 31 31
Wind_Direction
245 246 249 252 255 256 257 259 261 261 261 262 262 266 267 265 263 263 265 265 265 270 272 270 271 273 274 274 274 278 280 281 282 283 284 285 285 285 285 284 284 283 281 283
247 245 247 248 249 253 257 261 263 264 262 261 263 267 269 267 265 267 269 267 264 268 267 269 274 275 275 275 274 276 279 280 281 280 281 282 283 283 282 282 282 282 282 283
251 247 245 248 251 254 256 260 262 262 262 263 266 268 268 269 270 273 275 272 269 270 266 267 271 273 274 274 275 277 279 279 277 278 279 279 281 281 280 280 280 281 281 282
251 250 252 252 252 254 256 258 259 259 261 262 265 266 267 270 271 275 276 275 271 270 269 268 269 269 274 276 277 277 277 278 278 278 278 277 278 279 279 278 278 278 278 279
252 251 251 252 254 255 257 258 256 255 258 259 262 268 270 273 275 276 274 271 271 269 272 271 270 270 274 276 277 277 275 276 277 278 278 277 277 277 278 278 276 276 276 277
252 251 251 252 253 256 259 258 256 255 258 257 264 269 271 274 277 277 273 270 271 271 272 270 268 270 273 276 277 276 276 275 274 274 275 276 276 276 276 276 275 276 276 277
252 252 252 253 253 256 258 258 257 257 257 261 267 269 273 275 277 276 272 270 270 271 271 272 271 270 271 275 276 275 275 276 274 273 273 274 274 273 273 274 275 276 276 277
255 255 256 256 257 259 259 258 261 264 263 265 265 267 272 275 273 272 273 269 266 267 267 268 269 272 274 275 276 276 276 276 275 274 274 274 272 272 271 272 274 275 276 276
260 260 260 260 261 261 261 260 264 266 267 266 268 270 270 271 269 269 270 271 269 267 269 271 271 274 275 275 274 275 276 276 277 275 276 274 273 272 271 272 274 275 276 275
261 262 261 259 258 258 259 263 264 264 265 266 268 269 270 271 271 270 270 270 271 272 271 270 272 276 278 277 275 275 276 276 276 276 274 273 274 273 272 272 273 273 274 275
263 263 261 259 257 258 258 259 261 262 264 267 269 269 270 270 271 270 270 270 271 273 271 270 273 274 276 278 276 275 275 275 275 275 274 273 274 275 274 272 272 274 273 273
262 263 262 260 261 261 261 262 262 262 264 266 269 270 270 269 269 270 271 272 272 273 273 272 273 273 276 276 275 274 274 274 274 274 274 274 274 275 274 273 272 274 274 273
261 263 264 261 260 260 262 263 264 265 266 267 268 270 270 270 270 270 271 271 270 271 273 272 271 273 275 275 274 273 273 273 272 273 274 274 273 274 273 273 272 272 272 271
261 262 264 264 262 259 260 262 264 265 265 267 270 271 270 270 272 272 271 271 269 270 272 273 274 273 273 274 274 273 274 273 272 272 273 274 274 274 272 272 272 272 272 271
264 262 263 263 261 259 260 261 262 265 268 270 271 272 272 273 273 273 272 270 269 271 273 274 274 272 272 273 272 272 273 273 272 271 272 272 273 272 271 270 271 271 271 270
267 266 264 261 260 259 259 259 262 265 268 271 271 272 273 274 274 273 272 271 271 272 275 277 277 276 275 275 273 273 273 272 272 271 271 271 271 271 271 270 270 270 271 270
266 268 266 264 261 260 259 260 264 268 270 272 274 273 272 273 275 275 274 274 275 276 276 278 278 277 277 277 276 275 275 274 273 272 271 269 269 270 270 269 269 269 269 269
265 268 268 267 264 259 260 261 265 269 272 273 275 273 272 273 273 273 274 275 276 276 277 277 277 277 276 276 276 276 275 275 275 274 272 271 270 269 269 270 271 271 271 272
266 265 267 266 267 266 264 264 266 268 271 274 277 275 274 273 275 276 276 276 277 277 278 278 277 276 275 275 274 275 276 277 276 275 274 273 272 270 269 270 271 272 272 273
265 264 266 267 268 270 271 273 271 271 273 275 276 279 280 280 280 279 277 276 276 277 277 278 277 275 274 274 275 275 274 276 276 276 275 275 273 271 270 270 271 272 272 273
265 266 266 266 268 271 275 277 276 276 278 278 278 278 280 282 281 280 278 277 278 280 279 278 276 275 275 274 274 274 275 275 275 275 274 274 273 272 271 271 271 271 271 272
268 268 266 266 268 273 276 276 276 278 280 280 280 280 281 282 282 281 280 280 280 280 279 278 276 274 274 275 274 274 274 274 273 274 273 273 274 274 272 271 272 271 272 273
268 268 268 267 269 273 275 277 278 280 281 282 282 282 283 284 284 283 284 283 282 282 279 278 277 276 274 274 274 273 273 273 273 273 273 273 273 274 274 273 272 271 272 274
268 268 269 269 270 272 274 275 276 279 281 284 285 284 283 283 283 284 284 283 283 282 281 280 278 276 276 275 275 274 274 273 273 272 271 271 272 273 273 274 274 273 273 273
267 268 268 268 269 269 272 275 278 279 281 283 285 286 285 284 282 282 283 284 283 282 281 281 281 280 278 276 276 275 275 274 274 272 272 272 272 272 273 273 274 275 275 274
268 267 268 269 269 270 272 276 278 279 280 282 283 285 286 286 286 285 283 283 283 281 279 280 282 282 281 279 277 276 275 274 274 273 273 273 273 273 273 273 273 274 274 275
Height
5842 5843 5843 5844 5844 5844 5844 5845 5845 5845 5844 5844 5843 5843 5844 5843 5843 5844 5844 5845 5844 5844 5844 5844 5845 5845 5845 5845 5846 5846 5845 5845 5845 5844 5843 5843 5842 5842 5841 5840 5840 5839 5838 5837
5839 5840 5841 5840 5840 5841 5841 5841 5841 5841 5841 5840 5840 5839 5839 5839 5839 5839 5840 5840 5840 5841 5841 5841 5841 5841 5842 5842 5842 5842 5842 5842 5841 5840 5840 5839 5839 5838 5837 5837 5836 5836 5835 5834
5836 5838 5837 5837 5837 5837 5837 5838 5838 5838 5837 5836 5836 5836 5836 5835 5835 5835 5835 5836 5836 5837 5837 5838 5837 5838 5838 5838 5839 5839 5839 5838 5838 5837 5836 5836 5835 5834 5834 5833 5833 5832 5831 5831
5832 5833 5833 5833 5834 5834 5834 5834 5834 5833 5833 5833 5833 5832 5833 5832 5831 5831 5831 5832 5832 5833 5834 5834 5834 5834 5834 5834 5835 5835 5835 5834 5833 5833 5832 5832 5831 5831 5830 5830 5829 5828 5827 5827
5829 5829 5829 5830 5831 5830 5830 5830 5830 5829 5829 5829 5828 5828 5829 5828 5827 5827 5827 5827 5828 5828 5829 5830 5830 5831 5831 5831 5831 5830 5830 5830 5829 5829 5828 5827 5827 5826 5826 5825 5825 5824 5824 5823
5825 5825 5825 5826 5826 5826 5826 5826 5826 5825 5825 5825 5825 5824 5824 5824 5824 5823 5823 5823 5824 5825 5825 5825 5826 5826 5826 5826 5826 5826 5826 5825 5824 5824 5823 5823 5822 5822 5821 5821 5820 5820 5819 5818
5820 5821 5821 5821 5821 5822 5822 5822 5822 5821 5820 5821 5822 5819 5820 5820 5820 5819 5819 5819 5820 5820 5820 5820 5821 5821 5821 5821 5821 5821 5821 5820 5819 5819 5818 5818 5817 5817 5816 5816 5816 5815 5814 5814
5816 5817 5817 5817 5817 5817 5817 5818 5818 5817 5816 5816 5816 5814 5816 5816 5816 5815 5814 5815 5815 5815 5816 5816 5817 5816 5816 5816 5816 5816 5815 5815 5814 5813 5813 5812 5812 5811 5811 5811 5810 5810 5809 5808
5810 5812 5813 5812 5812 5812 5812 5812 5813 5812 5811 5811 5810 5811 5811 5811 5811 5811 5810 5810 5811 5811 5811 5812 5812 5812 5812 5811 5811 5810 5810 5809 5808 5808 5807 5806 5806 5805 5805 5804 5804 5804 5803 5802
5806 5806 5807 5807 5807 5807 5807 5807 5807 5807 5806 5805 5806 5805 5806 5806 5806 5806 5806 5806 5806 5806 5806 5806 5806 5806 5805 5805 5805 5804 5804 5803 5802 5801 5801 5800 5800 5799 5798 5798 5798 5797 5797 5796
5800 5801 5802 5801 5801 5802 5802 5802 5801 5801 5800 5800 5800 5803 5802 5801 5801 5801 5801 5801 5800 5800 5800 5800 5800 5800 5799 5799 5798 5798 5797 5797 5796 5795 5795 5794 5793 5792 5792 5791 5791 5790 5790 5789
5795 5795 5795 5796 5796 5796 5796 5796 5796 5796 5795 5794 5794 5798 5796 5796 5795 5795 5795 5795 5794 5794 5794 5794 5794 5794 5793 5792 5792 5791 5791 5790 5789 5789 5788 5787 5786 5786 5785 5784 5784 5783 5783 5782
5789 5789 5789 5790 5791 5790 5789 5789 5789 5789 5789 5788 5788 5792 5790 5789 5789 5789 5789 5789 5788 5788 5787 5787 5787 5787 5786 5785 5785 5784 5783 5783 5782 5781 5780 5780 5779 5779 5778 5777 5776 5776 5775 5775
5783 5783 5784 5784 5783 5783 5783 5784 5784 5783 5782 5781 5781 5783 5783 5783 5783 5782 5782 5781 5781 5781 5780 5780 5780 5780 5779 5778 5777 5776 5776 5775 5774 5774 5773 5772 5771 5771 5770 5770 5769 5768 5768 5767
5776 5777 5777 5777 5777 5776 5777 5777 5777 5776 5776 5775 5775 5775 5776 5776 5775 5775 5774 5773 5773 5773 5772 5772 5772 5771 5771 5771 5770 5769 5768 5767 5766 5766 5765 5764 5763 5762 5762 5762 5761 5761 5760 5760
5770 5770 5770 5771 5771 5770 5770 5771 5770 5770 5769 5769 5768 5769 5769 5768 5767 5767 5766 5766 5765 5765 5765 5764 5763 5763 5763 5762 5762 5761 5760 5759 5758 5757 5757 5756 5755 5754 5753 5753 5753 5753 5752 5752
5763 5763 5764 5764 5764 5764 5764 5764 5764 5763 5763 5763 5762 5763 5761 5761 5760 5759 5758 5758 5757 5757 5756 5756 5755 5754 5754 5753 5753 5752 5751 5750 5749 5748 5748 5747 5746 5745 5745 5744 5744 5744 5744 5744
5757 5757 5757 5757 5758 5757 5760 5758 5757 5757 5756 5755 5755 5754 5754 5753 5752 5751 5751 5750 5749 5748 5748 5747 5746 5746 5745 5744 5743 5742 5741 5741 5740 5739 5739 5738 5737 5737 5736 5736 5735 5735 5735 5735
5751 5751 5751 5751 5750 5750 5752 5751 5750 5750 5749 5748 5747 5747 5746 5745 5744 5744 5743 5742 5741 5740 5739 5738 5737 5736 5735 5735 5734 5733 5732 5731 5731 5730 5729 5728 5728 5727 5727 5726 5726 5726 5725 5725
5745 5745 5745 5744 5743 5743 5746 5744 5742 5743 5741 5741 5739 5739 5738 5737 5736 5736 5734 5733 5731 5730 5729 5728 5727 5726 5725 5725 5724 5723 5723 5722 5721 5721 5720 5719 5718 5718 5718 5717 5717 5716 5716 5716
5738 5738 5738 5738 5736 5737 5738 5737 5736 5736 5735 5733 5732 5731 5730 5728 5728 5727 5725 5723 5721 5720 5719 5718 5717 5716 5716 5715 5714 5714 5713 5713 5712 5711 5711 5710 5709 5709 5709 5708 5707 5707 5707 5706
5731 5731 5731 5731 5730 5732 5731 5729 5729 5728 5726 5725 5723 5722 5721 5719 5718 5716 5714 5713 5711 5710 5708 5708 5707 5706 5706 5705 5704 5704 5703 5703 5702 5702 5701 5701 5700 5700 5699 5698 5698 5697 5697 5696
5724 5725 5724 5724 5725 5724 5723 5722 5721 5719 5718 5716 5715 5714 5712 5710 5708 5707 5705 5703 5702 5700 5699 5698 5697 5696 5695 5695 5694 5694 5693 5693 5692 5692 5691 5691 5690 5690 5689 5689 5688 5688 5687 5687
5718 5717 5716 5716 5716 5716 5715 5714 5713 5712 5710 5708 5706 5705 5703 5701 5699 5697 5696 5694 5693 5691 5690 5689 5687 5687 5686 5685 5685 5684 5683 5682 5682 5682 5681 5681 5680 5680 5680 5679 5679 5678 5678 5677
5710 5709 5708 5708 5708 5707 5707 5706 5705 5703 5701 5700 5698 5696 5694 5692 5691 5689 5687 5686 5684 5682 5681 5680 5679 5678 5677 5676 5675 5674 5674 5673 5672 5672 5671 5671 5670 5670 5670 5669 5669 5668 5668 5667
5703 5702 5701 5700 5700 5699 5699 5698 5696 5695 5693 5692 5690 5688 5686 5684 5682 5680 5679 5677 5675 5674 5672 5671 5670 5669 5668 5667 5666 5665 5664 5664 5663 5662 5662 5661 5661 5660 5660 5660 5659 5658 5658 5657